FW3337 Weather Reports


Display with metric or nautical units.
time (UTC)temp
F
wind
direction
speed
MPH
gust
MPH
rain 1hr
in
rain 24hr
in
rain mn
in
humidity
%
barometer
mb
20260905113030 63 266 0.0 1.0 0.00 0.00 0.00 91 1010.6
20260905111529 62 266 0.0 0.0 0.00 0.00 0.00 93 1010.2
20260905110029 61 266 0.0 2.0 0.00 0.00 0.00 93 1010.0
20260905104528 61 266 0.0 1.0 0.00 0.00 0.00 92 1009.9
20260905103026 62 266 0.0 0.0 0.00 0.00 0.00 92 1009.8
20260905101530 61 266 0.0 2.0 0.00 0.00 0.00 92 1009.7
20260905100053 61 266 0.0 2.0 0.00 0.00 0.00 92 1009.7
20260905094522 62 266 0.0 0.0 0.00 0.00 0.00 92 1009.7
20260905093021 62 266 0.0 0.0 0.00 0.00 0.00 92 1009.4
20260905091520 62 266 0.0 0.0 0.00 0.00 0.00 91 1009.4
20260905090018 62 266 0.0 0.0 0.00 0.00 0.00 90 1009.5
20260905084515 63 266 0.0 0.0 0.00 0.00 0.00 90 1009.3
20260905083013 64 266 0.0 0.0 0.00 0.00 0.00 89 1009.4
20260905081509 65 266 0.0 0.0 0.00 0.00 0.00 87 1009.4
20260905080008 65 266 0.0 0.0 0.00 0.00 0.00 86 1009.5
20260905074506 66 266 0.0 0.0 0.00 0.00 0.00 85 1009.6
20260905073008 67 266 0.0 2.0 0.00 0.00 0.00 86 1009.4
20260905071503 67 266 0.0 2.0 0.00 0.00 0.00 84 1009.4
20260905070002 67 266 0.0 0.0 0.00 0.00 0.00 83 1009.5
20260905064617 67 266 0.0 0.0 0.00 0.00 0.00 81 1009.6
20260905063057 68 266 0.0 0.0 0.00 0.00 0.00 84 1009.6
20260905061603 68 266 0.0 0.0 0.00 0.00 0.00 82 1009.8
20260905060053 68 266 0.0 0.0 0.00 0.00 0.00 81 1009.9
20260905054647 69 266 0.0 0.0 0.00 0.00 0.00 81 1010.0
20260905053049 69 266 0.0 1.0 0.00 0.00 0.00 80 1010.2
20260905051547 70 266 0.0 0.0 0.00 0.00 0.00 79 1010.3
20260905050045 70 266 0.0 0.0 0.00 0.00 0.00 78 1010.5
20260905044547 70 266 0.0 0.0 0.00 0.06 0.00 77 1010.5
20260905043043 71 266 0.0 0.0 0.00 0.06 0.00 75 1010.4
20260905041540 71 266 0.0 1.0 0.00 0.06 0.00 76 1010.3
20260905040040 71 266 0.0 2.0 0.00 0.06 0.00 76 1010.4
20260905034539 70 296 0.0 2.0 0.00 0.06 0.06 78 1010.3
20260905033040 70 296 0.0 2.0 0.00 0.06 0.06 79 1010.4
20260905031542 68 267 0.0 3.0 0.00 0.06 0.06 84 1010.3
20260905030038 66 260 0.0 2.0 0.00 0.06 0.06 93 1010.5
20260905024547 65 260 0.0 0.0 0.00 0.06 0.06 95 1010.5
20260905023035 65 260 0.0 0.0 0.00 0.06 0.06 95 1010.5
20260905021537 65 260 0.0 0.0 0.00 0.06 0.06 94 1010.4
20260905020037 65 260 0.0 0.0 0.00 0.06 0.06 94 1010.5
20260905014532 66 260 0.0 0.0 0.00 0.06 0.06 93 1010.6
20260905013030 66 260 0.0 0.0 0.00 0.06 0.06 93 1010.6
20260905011528 67 260 0.0 0.0 0.00 0.06 0.06 92 1010.5
20260905010036 67 260 0.0 0.0 0.00 0.06 0.06 92 1010.6
20260905004525 68 260 0.0 0.0 0.00 0.06 0.06 91 1010.6
20260905003023 68 260 0.0 0.0 0.00 0.06 0.06 90 1010.4
20260905001521 69 260 0.0 0.0 0.00 0.06 0.06 89 1010.3
20260905000031 70 260 0.0 0.0 0.00 0.06 0.06 87 1010.2
20260904234523 71 260 0.0 0.0 0.00 0.06 0.06 86 1010.2
20260904233020 72 260 0.0 0.0 0.00 0.06 0.06 84 1010.1
20260904231520 74 260 0.0 0.0 0.00 0.06 0.06 80 1010.0
20260904230019 75 260 0.0 0.0 0.00 0.06 0.06 77 1010.0
20260904224518 77 260 0.0 1.0 0.00 0.06 0.06 72 1010.0
20260904223019 78 260 0.0 1.0 0.00 0.06 0.06 67 1010.0
20260904221517 78 260 0.0 2.0 0.00 0.06 0.06 65 1010.1
20260904220017 79 260 0.0 2.0 0.00 0.06 0.06 63 1009.9
20260904214516 79 260 0.0 2.0 0.00 0.06 0.06 63 1009.9
20260904213015 80 260 0.0 3.0 0.00 0.06 0.06 61 1009.8
20260904211516 80 288 0.0 4.0 0.00 0.06 0.06 61 1009.8
20260904210019 81 339 0.0 5.0 0.00 0.06 0.06 60 1009.9
20260904204515 81 339 0.0 5.0 0.00 0.06 0.06 59 1010.0
20260904203018 81 296 0.0 4.0 0.00 0.06 0.06 60 1010.1
20260904201512 81 231 1.0 4.0 0.00 0.06 0.06 60 1010.3
20260904200012 81 212 1.0 5.0 0.00 0.06 0.06 62 1010.2
20260904194511 80 264 0.0 3.0 0.00 0.06 0.06 63 1010.2
20260904193010 80 278 0.0 4.0 0.00 0.06 0.06 67 1010.3
20260904191509 80 307 0.0 1.0 0.00 0.06 0.06 67 1010.4
20260904190009 80 18 0.0 2.0 0.00 0.06 0.06 67 1010.5
20260904184512 80 18 0.0 1.0 0.00 0.06 0.06 66 1010.7
20260904183007 80 29 0.0 1.0 0.00 0.06 0.06 67 1010.7
20260904181507 81 15 0.0 4.0 0.00 0.06 0.06 64 1010.7
20260904180007 82 154 0.0 3.0 0.00 0.06 0.06 60 1010.8
20260904174504 82 50 0.0 3.0 0.00 0.06 0.06 62 1010.6
20260904173001 81 291 1.0 5.0 0.00 0.06 0.06 63 1010.7
20260904171600 81 66 0.0 7.0 0.00 0.06 0.06 64 1010.7
20260904170059 80 293 2.0 7.0 0.00 0.06 0.06 65 1010.8
20260904164600 80 312 0.0 10.0 0.00 0.07 0.06 65 1011.0
20260904163058 81 152 0.0 7.0 0.00 0.07 0.06 67 1010.8
20260904161602 80 60 0.0 6.0 0.00 0.07 0.06 68 1010.9
20260904160054 80 314 1.0 10.0 0.00 0.07 0.06 67 1011.0
20260904154552 79 303 1.0 6.0 0.00 0.07 0.06 70 1011.0
20260904153052 79 305 1.0 6.0 0.00 0.07 0.06 70 1011.1
20260904151551 79 114 2.0 5.0 0.00 0.07 0.06 71 1011.5
20260904150047 79 68 1.0 6.0 0.00 0.07 0.06 73 1011.4
20260904144546 78 39 0.0 5.0 0.00 0.07 0.06 76 1011.2
20260904143042 77 329 0.0 3.0 0.00 0.07 0.06 78 1011.2
20260904141551 77 83 0.0 2.0 0.00 0.07 0.06 78 1011.1
20260904140037 76 74 0.0 3.0 0.00 0.07 0.06 81 1011.0
20260904134548 75 293 0.0 4.0 0.00 0.07 0.06 82 1011.1
20260904133028 74 122 0.0 3.0 0.00 0.07 0.06 87 1011.1
20260904131524 73 293 0.0 6.0 0.00 0.07 0.06 90 1011.1
20260904130022 72 289 1.0 7.0 0.00 0.07 0.06 89 1011.1
20260904124521 72 220 0.0 5.0 0.00 0.07 0.06 92 1011.1
20260904123019 71 174 0.0 2.0 0.00 0.07 0.06 95 1011.2
20260904121518 70 105 0.0 3.0 0.00 0.07 0.06 97 1011.1
20260904120021 70 141 0.0 3.0 0.00 0.07 0.06 97 1011.0
20260904114517 70 135 0.0 2.0 0.00 0.07 0.06 98 1011.1